owner,sensor,date,latitude,longitude,vertical_datum,wind_speed,wind_to_direction,wind_speed_of_gust,qcFlag 
NDBC,ioos:station:wmo:42001:1,2017-08-01T00:40:00Z,25.8880,-89.6580,5.0,5.0,10.0,7.0,'1111122,1111122,1111122' 
NDBC,ioos:station:wmo:42001:1,2017-08-01T01:40:00Z,25.8880,-89.6580,5.0,5.0,10.0,7.0,'1111122,1111122,1111122' 
NDBC,ioos:station:wmo:42001:1,2017-08-01T02:40:00Z,25.8880,-89.6580,5.0,5.0,40.0,6.0,'1111122,1111122,1111122' 
NDBC,ioos:station:wmo:42001:1,2017-08-01T03:40:00Z,25.8880,-89.6580,5.0,5.0,60.0,6.0,'1111122,1111122,1111122' 
NDBC,ioos:station:wmo:42001:1,2017-08-01T04:40:00Z,25.8880,-89.6580,5.0,5.0,80.0,6.0,'1111122,1111122,1111122' 
NDBC,ioos:station:wmo:42001:1,2017-08-01T05:40:00Z,25.8880,-89.6580,5.0,4.0,80.0,5.0,'1111122,1111122,1111122' 
NDBC,ioos:station:wmo:42001:1,2017-08-01T06:40:00Z,25.8880,-89.6580,5.0,4.0,100.0,5.0,'1111122,1111122,1111122' 
NDBC,ioos:station:wmo:42001:1,2017-08-01T07:40:00Z,25.8880,-89.6580,5.0,2.0,80.0,3.0,'1111122,1111122,1111122' 
NDBC,ioos:station:wmo:42001:1,2017-08-01T08:40:00Z,25.8880,-89.6580,5.0,2.0,80.0,2.0,'1111122,1111122,1111122' 
NDBC,ioos:station:wmo:42001:1,2017-08-01T09:40:00Z,25.8880,-89.6580,5.0,2.0,90.0,3.0,'1111122,1111122,1111122' 
NDBC,ioos:station:wmo:42001:1,2017-08-01T10:40:00Z,25.8880,-89.6580,5.0,1.0,100.0,2.0,'1111122,1111122,1111122' 
NDBC,ioos:station:wmo:42001:1,2017-08-01T11:40:00Z,25.8880,-89.6580,5.0,1.0,100.0,1.0,'1111122,1111122,1111122' 
NDBC,ioos:station:wmo:42001:1,2017-08-01T12:40:00Z,25.8880,-89.6580,5.0,0.0,-9999.0,1.0,'1114422,1111122,1111122' 
NDBC,ioos:station:wmo:42001:1,2017-08-01T13:40:00Z,25.8880,-89.6580,5.0,2.0,250.0,3.0,'1111122,1111122,1111122' 
NDBC,ioos:station:wmo:42001:1,2017-08-01T14:40:00Z,25.8880,-89.6580,5.0,3.0,260.0,4.0,'1111122,1111122,1111122' 
NDBC,ioos:station:wmo:42001:1,2017-08-01T15:40:00Z,25.8880,-89.6580,5.0,5.0,250.0,6.0,'1111122,1111122,1111122' 
NDBC,ioos:station:wmo:42001:1,2017-08-01T16:40:00Z,25.8880,-89.6580,5.0,3.0,250.0,4.0,'1111122,1111122,1111122' 
NDBC,ioos:station:wmo:42001:1,2017-08-01T17:40:00Z,25.8880,-89.6580,5.0,4.0,240.0,5.0,'1111122,1111122,1111122' 
NDBC,ioos:station:wmo:42001:1,2017-08-01T18:50:00Z,25.8880,-89.6580,5.0,2.0,220.0,3.0,'1111122,1111122,1111122' 
NDBC,ioos:station:wmo:42001:1,2017-08-01T19:40:00Z,25.8880,-89.6580,5.0,3.0,280.0,4.0,'1111122,1111122,1111122' 
NDBC,ioos:station:wmo:42001:1,2017-08-01T20:50:00Z,25.8880,-89.6580,5.0,3.0,290.0,4.0,'1111122,1111122,1111122' 
NDBC,ioos:station:wmo:42001:1,2017-08-01T22:00:00Z,25.8880,-89.6580,5.0,3.0,300.0,4.0,'1111122,1111122,1111122' 
NDBC,ioos:station:wmo:42001:1,2017-08-01T22:50:00Z,25.8880,-89.6580,5.0,3.0,270.0,4.0,'1111122,1111122,1111122' 
NDBC,ioos:station:wmo:42001:1,2017-08-02T01:50:00Z,25.8880,-89.6580,5.0,0.0,-9999.0,1.0,'1114422,1111122,1111122' 
NDBC,ioos:station:wmo:42001:1,2017-08-02T02:40:00Z,25.8880,-89.6580,5.0,2.0,350.0,3.0,'1111122,1111122,1111122' 
NDBC,ioos:station:wmo:42001:1,2017-08-02T03:40:00Z,25.8880,-89.6580,5.0,1.0,310.0,2.0,'1111122,1111122,1111122' 
NDBC,ioos:station:wmo:42001:1,2017-08-02T04:40:00Z,25.8880,-89.6580,5.0,5.0,150.0,7.0,'1111122,1111122,1111122' 
NDBC,ioos:station:wmo:42001:1,2017-08-02T05:50:00Z,25.8880,-89.6580,5.0,5.0,160.0,8.0,'1111122,1111122,1111122' 
NDBC,ioos:station:wmo:42001:1,2017-08-02T06:40:00Z,25.8880,-89.6580,5.0,4.0,180.0,5.0,'1111122,1111122,1111122' 
NDBC,ioos:station:wmo:42001:1,2017-08-02T07:50:00Z,25.8880,-89.6580,5.0,5.0,200.0,6.0,'1111122,1111122,1111122' 
NDBC,ioos:station:wmo:42001:1,2017-08-02T08:50:00Z,25.8880,-89.6580,5.0,5.0,230.0,7.0,'1111122,1111122,1111122' 
NDBC,ioos:station:wmo:42001:1,2017-08-02T09:50:00Z,25.8880,-89.6580,5.0,5.0,200.0,6.0,'1111122,1111122,1111122' 
NDBC,ioos:station:wmo:42001:1,2017-08-02T10:50:00Z,25.8880,-89.6580,5.0,3.0,200.0,5.0,'1111122,1111122,1111122' 
NDBC,ioos:station:wmo:42001:1,2017-08-02T11:50:00Z,25.8880,-89.6580,5.0,5.0,200.0,6.0,'1111122,1111122,1111122' 
NDBC,ioos:station:wmo:42001:1,2017-08-02T12:40:00Z,25.8880,-89.6580,5.0,4.0,210.0,5.0,'1111122,1111122,1111122' 
NDBC,ioos:station:wmo:42001:1,2017-08-02T13:40:00Z,25.8880,-89.6580,5.0,4.0,200.0,5.0,'1111122,1111122,1111122' 
NDBC,ioos:station:wmo:42001:1,2017-08-02T14:50:00Z,25.8880,-89.6580,5.0,4.0,200.0,5.0,'1111122,1111122,1111122' 
NDBC,ioos:station:wmo:42001:1,2017-08-02T15:50:00Z,25.8880,-89.6580,5.0,4.0,210.0,5.0,'1111122,1111122,1111122' 
NDBC,ioos:station:wmo:42001:1,2017-08-02T16:50:00Z,25.8880,-89.6580,5.0,4.0,200.0,5.0,'1111122,1111122,1111122' 
NDBC,ioos:station:wmo:42001:1,2017-08-02T17:50:00Z,25.8880,-89.6580,5.0,4.0,200.0,5.0,'1111122,1111122,1111122' 
NDBC,ioos:station:wmo:42001:1,2017-08-02T18:40:00Z,25.8880,-89.6580,5.0,4.0,200.0,6.0,'1111122,1111122,1111122' 
NDBC,ioos:station:wmo:42001:1,2017-08-02T19:40:00Z,25.8880,-89.6580,5.0,5.0,210.0,6.0,'1111122,1111122,1111122' 
NDBC,ioos:station:wmo:42001:1,2017-08-02T20:40:00Z,25.8880,-89.6580,5.0,5.0,200.0,6.0,'1111122,1111122,1111122' 
NDBC,ioos:station:wmo:42001:1,2017-08-03T00:00:00Z,25.8880,-89.6580,5.0,5.0,190.0,6.0,'1111122,1111122,1111122' 
NDBC,ioos:station:wmo:42001:1,2017-08-03T03:20:00Z,25.8880,-89.6580,5.0,8.0,20.0,10.0,'1111122,1111122,1111122' 
NDBC,ioos:station:wmo:42001:1,2017-08-03T05:30:00Z,25.8880,-89.6580,5.0,5.0,70.0,6.0,'1111122,1111122,1111122' 
NDBC,ioos:station:wmo:42001:1,2017-08-03T07:30:00Z,25.8880,-89.6580,5.0,6.0,130.0,7.0,'1111122,1111122,1111122' 
NDBC,ioos:station:wmo:42001:1,2017-08-03T08:50:00Z,25.8880,-89.6580,5.0,4.0,150.0,5.0,'1111122,1111122,1111122' 
NDBC,ioos:station:wmo:42001:1,2017-08-03T09:50:00Z,25.8880,-89.6580,5.0,6.0,170.0,7.0,'1111122,1111122,1111122' 
NDBC,ioos:station:wmo:42001:1,2017-08-03T11:00:00Z,25.8880,-89.6580,5.0,7.0,170.0,9.0,'1111122,1111122,1111122' 
NDBC,ioos:station:wmo:42001:1,2017-08-03T11:50:00Z,25.8880,-89.6580,5.0,7.0,180.0,9.0,'1111122,1111122,1111122' 
NDBC,ioos:station:wmo:42001:1,2017-08-03T13:00:00Z,25.8880,-89.6580,5.0,7.0,180.0,9.0,'1111122,1111122,1111122' 
NDBC,ioos:station:wmo:42001:1,2017-08-03T13:40:00Z,25.8880,-89.6580,5.0,8.0,180.0,9.0,'1111122,1111122,1111122' 
NDBC,ioos:station:wmo:42001:1,2017-08-03T14:40:00Z,25.8880,-89.6580,5.0,8.0,180.0,10.0,'1111122,1111122,1111122' 
NDBC,ioos:station:wmo:42001:1,2017-08-03T15:40:00Z,25.8880,-89.6580,5.0,7.0,180.0,9.0,'1111122,1111122,1111122' 
NDBC,ioos:station:wmo:42001:1,2017-08-03T16:40:00Z,25.8880,-89.6580,5.0,6.0,190.0,8.0,'1111122,1111122,1111122' 
NDBC,ioos:station:wmo:42001:1,2017-08-03T20:40:00Z,25.8880,-89.6580,5.0,6.0,200.0,8.0,'1111122,1111122,1111122' 
NDBC,ioos:station:wmo:42001:1,2017-08-04T00:00:00Z,25.8880,-89.6580,5.0,5.0,350.0,6.0,'1111122,1111122,1111122' 
NDBC,ioos:station:wmo:42001:1,2017-08-04T02:20:00Z,25.8880,-89.6580,5.0,2.0,70.0,3.0,'1111122,1111122,1111122' 
NDBC,ioos:station:wmo:42001:1,2017-08-04T06:10:00Z,25.8880,-89.6580,5.0,6.0,150.0,7.0,'1111122,1111122,1111122' 
NDBC,ioos:station:wmo:42001:1,2017-08-04T08:10:00Z,25.8880,-89.6580,5.0,4.0,160.0,5.0,'1111122,1111122,1111122' 
NDBC,ioos:station:wmo:42001:1,2017-08-04T11:20:00Z,25.8880,-89.6580,5.0,4.0,170.0,5.0,'1111122,1111122,1111122' 
NDBC,ioos:station:wmo:42001:1,2017-08-04T13:10:00Z,25.8880,-89.6580,5.0,5.0,140.0,6.0,'1111122,1111122,1111122' 
NDBC,ioos:station:wmo:42001:1,2017-08-04T16:10:00Z,25.8880,-89.6580,5.0,5.0,160.0,6.0,'1111122,1111122,1111122' 
NDBC,ioos:station:wmo:42001:1,2017-08-04T21:50:00Z,25.8880,-89.6580,5.0,3.0,210.0,4.0,'1111122,1111122,1111122' 
NDBC,ioos:station:wmo:42001:1,2017-08-04T22:50:00Z,25.8880,-89.6580,5.0,2.0,230.0,3.0,'1111122,1111122,1111122' 
NDBC,ioos:station:wmo:42001:1,2017-08-05T05:50:00Z,25.8880,-89.6580,5.0,3.0,90.0,4.0,'1111122,1111122,1111122' 
NDBC,ioos:station:wmo:42001:1,2017-08-05T06:40:00Z,25.8880,-89.6580,5.0,2.0,110.0,3.0,'1111122,1111122,1111122' 
NDBC,ioos:station:wmo:42001:1,2017-08-05T07:40:00Z,25.8880,-89.6580,5.0,3.0,100.0,4.0,'1111122,1111122,1111122' 
NDBC,ioos:station:wmo:42001:1,2017-08-05T08:40:00Z,25.8880,-89.6580,5.0,3.0,130.0,4.0,'1111122,1111122,1111122' 
NDBC,ioos:station:wmo:42001:1,2017-08-05T09:50:00Z,25.8880,-89.6580,5.0,3.0,140.0,4.0,'1111122,1111122,1111122' 
NDBC,ioos:station:wmo:42001:1,2017-08-05T10:40:00Z,25.8880,-89.6580,5.0,2.0,140.0,3.0,'1111122,1111122,1111122' 
NDBC,ioos:station:wmo:42001:1,2017-08-05T11:50:00Z,25.8880,-89.6580,5.0,1.0,110.0,2.0,'1111122,1111122,1111122' 
NDBC,ioos:station:wmo:42001:1,2017-08-05T12:40:00Z,25.8880,-89.6580,5.0,2.0,140.0,4.0,'1111122,1111122,1111122' 
NDBC,ioos:station:wmo:42001:1,2017-08-05T13:50:00Z,25.8880,-89.6580,5.0,2.0,150.0,3.0,'1111122,1111122,1111122' 
NDBC,ioos:station:wmo:42001:1,2017-08-05T14:50:00Z,25.8880,-89.6580,5.0,2.0,150.0,3.0,'1111122,1111122,1111122' 
NDBC,ioos:station:wmo:42001:1,2017-08-05T15:50:00Z,25.8880,-89.6580,5.0,1.0,130.0,2.0,'1111122,1111122,1111122' 
NDBC,ioos:station:wmo:42001:1,2017-08-05T16:50:00Z,25.8880,-89.6580,5.0,2.0,100.0,3.0,'1111122,1111122,1111122' 
NDBC,ioos:station:wmo:42001:1,2017-08-05T18:00:00Z,25.8880,-89.6580,5.0,2.0,120.0,2.0,'1111122,1111122,1111122' 
NDBC,ioos:station:wmo:42001:1,2017-08-05T18:50:00Z,25.8880,-89.6580,5.0,1.0,140.0,2.0,'1111122,1111122,1111122' 
NDBC,ioos:station:wmo:42001:1,2017-08-05T19:50:00Z,25.8880,-89.6580,5.0,1.0,130.0,2.0,'1111122,1111122,1111122' 
NDBC,ioos:station:wmo:42001:1,2017-08-05T21:00:00Z,25.8880,-89.6580,5.0,1.0,130.0,2.0,'1111122,1111122,1111122' 
NDBC,ioos:station:wmo:42001:1,2017-08-05T22:00:00Z,25.8880,-89.6580,5.0,2.0,140.0,3.0,'1111122,1111122,1111122' 
NDBC,ioos:station:wmo:42001:1,2017-08-05T22:40:00Z,25.8880,-89.6580,5.0,1.0,110.0,3.0,'1111122,1111122,1111122' 
NDBC,ioos:station:wmo:42001:1,2017-08-06T03:40:00Z,25.8880,-89.6580,5.0,3.0,90.0,4.0,'1111122,1111122,1111122' 
NDBC,ioos:station:wmo:42001:1,2017-08-06T04:40:00Z,25.8880,-89.6580,5.0,4.0,120.0,5.0,'1111122,1111122,1111122' 
NDBC,ioos:station:wmo:42001:1,2017-08-06T05:40:00Z,25.8880,-89.6580,5.0,5.0,120.0,6.0,'1111122,1111122,1111122' 
NDBC,ioos:station:wmo:42001:1,2017-08-06T06:40:00Z,25.8880,-89.6580,5.0,5.0,120.0,6.0,'1111122,1111122,1111122' 
NDBC,ioos:station:wmo:42001:1,2017-08-06T07:40:00Z,25.8880,-89.6580,5.0,4.0,110.0,5.0,'1111122,1111122,1111122' 
NDBC,ioos:station:wmo:42001:1,2017-08-06T08:40:00Z,25.8880,-89.6580,5.0,4.0,110.0,5.0,'1111122,1111122,1111122' 
NDBC,ioos:station:wmo:42001:1,2017-08-06T09:50:00Z,25.8880,-89.6580,5.0,5.0,130.0,5.0,'1111122,1111122,1111122' 
NDBC,ioos:station:wmo:42001:1,2017-08-06T10:40:00Z,25.8880,-89.6580,5.0,4.0,120.0,5.0,'1111122,1111122,1111122' 
NDBC,ioos:station:wmo:42001:1,2017-08-06T11:40:00Z,25.8880,-89.6580,5.0,4.0,130.0,5.0,'1111122,1111122,1111122' 
NDBC,ioos:station:wmo:42001:1,2017-08-06T12:40:00Z,25.8880,-89.6580,5.0,3.0,120.0,4.0,'1111122,1111122,1111122' 
NDBC,ioos:station:wmo:42001:1,2017-08-06T13:40:00Z,25.8880,-89.6580,5.0,3.0,130.0,4.0,'1111122,1111122,1111122' 
NDBC,ioos:station:wmo:42001:1,2017-08-06T14:40:00Z,25.8880,-89.6580,5.0,3.0,130.0,4.0,'1111122,1111122,1111122' 
NDBC,ioos:station:wmo:42001:1,2017-08-06T15:40:00Z,25.8880,-89.6580,5.0,3.0,130.0,4.0,'1111122,1111122,1111122' 
NDBC,ioos:station:wmo:42001:1,2017-08-06T16:40:00Z,25.8880,-89.6580,5.0,3.0,130.0,3.0,'1111122,1111122,1111122' 
NDBC,ioos:station:wmo:42001:1,2017-08-06T17:40:00Z,25.8880,-89.6580,5.0,3.0,140.0,4.0,'1111122,1111122,1111122' 
NDBC,ioos:station:wmo:42001:1,2017-08-06T18:40:00Z,25.8880,-89.6580,5.0,3.0,150.0,4.0,'1111122,1111122,1111122' 
NDBC,ioos:station:wmo:42001:1,2017-08-06T19:40:00Z,25.8880,-89.6580,5.0,1.0,140.0,2.0,'1111122,1111122,1111122' 
NDBC,ioos:station:wmo:42001:1,2017-08-06T20:40:00Z,25.8880,-89.6580,5.0,1.0,140.0,2.0,'1111122,1111122,1111122' 
NDBC,ioos:station:wmo:42001:1,2017-08-06T21:40:00Z,25.8880,-89.6580,5.0,3.0,110.0,4.0,'1111122,1111122,1111122' 
NDBC,ioos:station:wmo:42001:1,2017-08-06T22:40:00Z,25.8880,-89.6580,5.0,4.0,120.0,4.0,'1111122,1111122,1111122' 
NDBC,ioos:station:wmo:42001:1,2017-08-06T23:40:00Z,25.8880,-89.6580,5.0,3.0,130.0,4.0,'1111122,1111122,1111122' 
NDBC,ioos:station:wmo:42001:1,2017-08-07T00:40:00Z,25.8880,-89.6580,5.0,3.0,130.0,4.0,'1111122,1111122,1111122' 
NDBC,ioos:station:wmo:42001:1,2017-08-07T01:40:00Z,25.8880,-89.6580,5.0,3.0,140.0,4.0,'1111122,1111122,1111122' 
NDBC,ioos:station:wmo:42001:1,2017-08-07T02:40:00Z,25.8880,-89.6580,5.0,4.0,140.0,4.0,'1111122,1111122,1111122' 
NDBC,ioos:station:wmo:42001:1,2017-08-07T03:40:00Z,25.8880,-89.6580,5.0,6.0,110.0,7.0,'1111122,1111122,1111122' 
NDBC,ioos:station:wmo:42001:1,2017-08-07T04:40:00Z,25.8880,-89.6580,5.0,5.0,120.0,7.0,'1111122,1111122,1111122' 
NDBC,ioos:station:wmo:42001:1,2017-08-07T05:40:00Z,25.8880,-89.6580,5.0,5.0,130.0,7.0,'1111122,1111122,1111122' 
NDBC,ioos:station:wmo:42001:1,2017-08-07T06:40:00Z,25.8880,-89.6580,5.0,4.0,140.0,6.0,'1111122,1111122,1111122' 
NDBC,ioos:station:wmo:42001:1,2017-08-07T07:40:00Z,25.8880,-89.6580,5.0,6.0,140.0,7.0,'1111122,1111122,1111122' 
NDBC,ioos:station:wmo:42001:1,2017-08-07T08:40:00Z,25.8880,-89.6580,5.0,6.0,140.0,7.0,'1111122,1111122,1111122' 
NDBC,ioos:station:wmo:42001:1,2017-08-07T09:40:00Z,25.8880,-89.6580,5.0,5.0,130.0,6.0,'1111122,1111122,1111122' 
NDBC,ioos:station:wmo:42001:1,2017-08-07T10:40:00Z,25.8880,-89.6580,5.0,5.0,130.0,6.0,'1111122,1111122,1111122' 
NDBC,ioos:station:wmo:42001:1,2017-08-07T11:40:00Z,25.8880,-89.6580,5.0,3.0,130.0,4.0,'1111122,1111122,1111122' 
NDBC,ioos:station:wmo:42001:1,2017-08-07T12:40:00Z,25.8880,-89.6580,5.0,4.0,130.0,5.0,'1111122,1111122,1111122' 
NDBC,ioos:station:wmo:42001:1,2017-08-07T13:40:00Z,25.8880,-89.6580,5.0,4.0,120.0,5.0,'1111122,1111122,1111122' 
NDBC,ioos:station:wmo:42001:1,2017-08-07T14:40:00Z,25.8880,-89.6580,5.0,5.0,120.0,6.0,'1111122,1111122,1111122' 
NDBC,ioos:station:wmo:42001:1,2017-08-07T15:40:00Z,25.8880,-89.6580,5.0,6.0,120.0,7.0,'1111122,1111122,1111122' 
NDBC,ioos:station:wmo:42001:1,2017-08-07T16:40:00Z,25.8880,-89.6580,5.0,6.0,120.0,7.0,'1111122,1111122,1111122' 
NDBC,ioos:station:wmo:42001:1,2017-08-07T17:40:00Z,25.8880,-89.6580,5.0,5.0,130.0,6.0,'1111122,1111122,1111122' 
NDBC,ioos:station:wmo:42001:1,2017-08-07T18:40:00Z,25.8880,-89.6580,5.0,4.0,120.0,5.0,'1111122,1111122,1111122' 
NDBC,ioos:station:wmo:42001:1,2017-08-07T19:40:00Z,25.8880,-89.6580,5.0,4.0,110.0,5.0,'1111122,1111122,1111122' 
NDBC,ioos:station:wmo:42001:1,2017-08-07T20:40:00Z,25.8880,-89.6580,5.0,3.0,110.0,4.0,'1111122,1111122,1111122' 
NDBC,ioos:station:wmo:42001:1,2017-08-07T21:40:00Z,25.8880,-89.6580,5.0,3.0,110.0,4.0,'1111122,1111122,1111122' 
NDBC,ioos:station:wmo:42001:1,2017-08-07T22:40:00Z,25.8880,-89.6580,5.0,4.0,100.0,5.0,'1111122,1111122,1111122' 
NDBC,ioos:station:wmo:42001:1,2017-08-07T23:40:00Z,25.8880,-89.6580,5.0,4.0,110.0,5.0,'1111122,1111122,1111122' 
NDBC,ioos:station:wmo:42001:1,2017-08-08T00:40:00Z,25.8880,-89.6580,5.0,4.0,110.0,5.0,'1111122,1111122,1111122' 
NDBC,ioos:station:wmo:42001:1,2017-08-08T01:40:00Z,25.8880,-89.6580,5.0,4.0,100.0,5.0,'1111122,1111122,1111122' 
NDBC,ioos:station:wmo:42001:1,2017-08-08T02:40:00Z,25.8880,-89.6580,5.0,5.0,100.0,7.0,'1111122,1111122,1111122' 
NDBC,ioos:station:wmo:42001:1,2017-08-08T03:40:00Z,25.8880,-89.6580,5.0,6.0,90.0,7.0,'1111122,1111122,1111122' 
NDBC,ioos:station:wmo:42001:1,2017-08-08T04:40:00Z,25.8880,-89.6580,5.0,6.0,90.0,8.0,'1111122,1111122,1111122' 
NDBC,ioos:station:wmo:42001:1,2017-08-08T05:40:00Z,25.8880,-89.6580,5.0,7.0,90.0,8.0,'1111122,1111122,1111122' 
NDBC,ioos:station:wmo:42001:1,2017-08-08T06:40:00Z,25.8880,-89.6580,5.0,6.0,80.0,7.0,'1111122,1111122,1111122' 
NDBC,ioos:station:wmo:42001:1,2017-08-08T07:40:00Z,25.8880,-89.6580,5.0,7.0,90.0,8.0,'1111122,1111122,1111122' 
NDBC,ioos:station:wmo:42001:1,2017-08-08T08:30:00Z,25.8880,-89.6580,5.0,7.0,100.0,8.0,'1111122,1111122,1111122' 
NDBC,ioos:station:wmo:42001:1,2017-08-08T09:40:00Z,25.8880,-89.6580,5.0,6.0,80.0,8.0,'1111122,1111122,1111122' 
NDBC,ioos:station:wmo:42001:1,2017-08-08T10:40:00Z,25.8880,-89.6580,5.0,6.0,110.0,8.0,'1111122,1111122,1111122' 
NDBC,ioos:station:wmo:42001:1,2017-08-08T11:40:00Z,25.8880,-89.6580,5.0,6.0,120.0,7.0,'1111122,1111122,1111122' 
NDBC,ioos:station:wmo:42001:1,2017-08-08T12:40:00Z,25.8880,-89.6580,5.0,6.0,120.0,8.0,'1111122,1111122,1111122' 
NDBC,ioos:station:wmo:42001:1,2017-08-08T13:40:00Z,25.8880,-89.6580,5.0,6.0,150.0,8.0,'1111122,1111122,1111122' 
NDBC,ioos:station:wmo:42001:1,2017-08-08T14:40:00Z,25.8880,-89.6580,5.0,7.0,130.0,8.0,'1111122,1111122,1111122' 
NDBC,ioos:station:wmo:42001:1,2017-08-08T15:40:00Z,25.8880,-89.6580,5.0,7.0,130.0,8.0,'1111122,1111122,1111122' 
NDBC,ioos:station:wmo:42001:1,2017-08-08T16:40:00Z,25.8880,-89.6580,5.0,5.0,130.0,6.0,'1111122,1111122,1111122' 
NDBC,ioos:station:wmo:42001:1,2017-08-08T17:40:00Z,25.8880,-89.6580,5.0,4.0,120.0,5.0,'1111122,1111122,1111122' 
NDBC,ioos:station:wmo:42001:1,2017-08-08T18:40:00Z,25.8880,-89.6580,5.0,5.0,110.0,6.0,'1111122,1111122,1111122' 
NDBC,ioos:station:wmo:42001:1,2017-08-08T19:40:00Z,25.8880,-89.6580,5.0,6.0,100.0,7.0,'1111122,1111122,1111122' 
NDBC,ioos:station:wmo:42001:1,2017-08-08T20:40:00Z,25.8880,-89.6580,5.0,6.0,100.0,7.0,'1111122,1111122,1111122' 
NDBC,ioos:station:wmo:42001:1,2017-08-08T21:40:00Z,25.8880,-89.6580,5.0,6.0,100.0,7.0,'1111122,1111122,1111122' 
NDBC,ioos:station:wmo:42001:1,2017-08-08T22:50:00Z,25.8880,-89.6580,5.0,6.0,100.0,7.0,'1111122,1111122,1111122' 
NDBC,ioos:station:wmo:42001:1,2017-08-08T23:40:00Z,25.8880,-89.6580,5.0,6.0,100.0,7.0,'1111122,1111122,1111122' 
NDBC,ioos:station:wmo:42001:1,2017-08-09T00:40:00Z,25.8880,-89.6580,5.0,6.0,100.0,7.0,'1111122,1111122,1111122' 
NDBC,ioos:station:wmo:42001:1,2017-08-09T01:40:00Z,25.8880,-89.6580,5.0,6.0,100.0,7.0,'1111122,1111122,1111122' 
NDBC,ioos:station:wmo:42001:1,2017-08-09T02:40:00Z,25.8880,-89.6580,5.0,7.0,90.0,8.0,'1111122,1111122,1111122' 
NDBC,ioos:station:wmo:42001:1,2017-08-09T03:40:00Z,25.8880,-89.6580,5.0,7.0,90.0,9.0,'1111122,1111122,1111122' 
NDBC,ioos:station:wmo:42001:1,2017-08-09T04:40:00Z,25.8880,-89.6580,5.0,6.0,80.0,7.0,'1111122,1111122,1111122' 
NDBC,ioos:station:wmo:42001:1,2017-08-09T05:40:00Z,25.8880,-89.6580,5.0,6.0,90.0,8.0,'1111122,1111122,1111122' 
NDBC,ioos:station:wmo:42001:1,2017-08-09T06:40:00Z,25.8880,-89.6580,5.0,6.0,100.0,12.0,'1111122,1111122,1111122' 
NDBC,ioos:station:wmo:42001:1,2017-08-09T07:40:00Z,25.8880,-89.6580,5.0,5.0,130.0,6.0,'1111122,1111122,1111122' 
NDBC,ioos:station:wmo:42001:1,2017-08-09T08:40:00Z,25.8880,-89.6580,5.0,6.0,110.0,8.0,'1111122,1111122,1111122' 
NDBC,ioos:station:wmo:42001:1,2017-08-09T09:40:00Z,25.8880,-89.6580,5.0,7.0,110.0,8.0,'1111122,1111122,1111122' 
NDBC,ioos:station:wmo:42001:1,2017-08-09T10:40:00Z,25.8880,-89.6580,5.0,7.0,120.0,8.0,'1111122,1111122,1111122' 
NDBC,ioos:station:wmo:42001:1,2017-08-09T11:40:00Z,25.8880,-89.6580,5.0,7.0,110.0,9.0,'1111122,1111122,1111122' 
NDBC,ioos:station:wmo:42001:1,2017-08-09T12:30:00Z,25.8880,-89.6580,5.0,7.0,110.0,8.0,'1111122,1111122,1111122' 
NDBC,ioos:station:wmo:42001:1,2017-08-09T13:40:00Z,25.8880,-89.6580,5.0,7.0,110.0,8.0,'1111122,1111122,1111122' 
NDBC,ioos:station:wmo:42001:1,2017-08-09T14:40:00Z,25.8880,-89.6580,5.0,6.0,110.0,7.0,'1111122,1111122,1111122' 
NDBC,ioos:station:wmo:42001:1,2017-08-09T15:40:00Z,25.8880,-89.6580,5.0,6.0,100.0,8.0,'1111122,1111122,1111122' 
NDBC,ioos:station:wmo:42001:1,2017-08-09T16:40:00Z,25.8880,-89.6580,5.0,6.0,110.0,8.0,'1111122,1111122,1111122' 
NDBC,ioos:station:wmo:42001:1,2017-08-09T23:40:00Z,25.8880,-89.6580,5.0,5.0,110.0,7.0,'1111122,1111122,1111122' 
NDBC,ioos:station:wmo:42001:1,2017-08-10T00:40:00Z,25.8880,-89.6580,5.0,5.0,110.0,7.0,'1111122,1111122,1111122' 
NDBC,ioos:station:wmo:42001:1,2017-08-10T01:20:00Z,25.8880,-89.6580,5.0,5.0,110.0,6.0,'1111122,1111122,1111122' 
NDBC,ioos:station:wmo:42001:1,2017-08-10T02:40:00Z,25.8880,-89.6580,5.0,6.0,100.0,7.0,'1111122,1111122,1111122' 
NDBC,ioos:station:wmo:42001:1,2017-08-10T03:40:00Z,25.8880,-89.6580,5.0,6.0,100.0,8.0,'1111122,1111122,1111122' 
NDBC,ioos:station:wmo:42001:1,2017-08-10T04:40:00Z,25.8880,-89.6580,5.0,7.0,110.0,8.0,'1111122,1111122,1111122' 
NDBC,ioos:station:wmo:42001:1,2017-08-10T05:40:00Z,25.8880,-89.6580,5.0,7.0,100.0,9.0,'1111122,1111122,1111122' 
NDBC,ioos:station:wmo:42001:1,2017-08-10T06:40:00Z,25.8880,-89.6580,5.0,7.0,100.0,9.0,'1111122,1111122,1111122' 
NDBC,ioos:station:wmo:42001:1,2017-08-10T07:40:00Z,25.8880,-89.6580,5.0,7.0,120.0,8.0,'1111122,1111122,1111122' 
NDBC,ioos:station:wmo:42001:1,2017-08-10T08:40:00Z,25.8880,-89.6580,5.0,7.0,120.0,9.0,'1111122,1111122,1111122' 
NDBC,ioos:station:wmo:42001:1,2017-08-10T09:20:00Z,25.8880,-89.6580,5.0,8.0,120.0,9.0,'1111122,1111122,1111122' 
NDBC,ioos:station:wmo:42001:1,2017-08-10T10:40:00Z,25.8880,-89.6580,5.0,6.0,120.0,8.0,'1111122,1111122,1111122' 
NDBC,ioos:station:wmo:42001:1,2017-08-10T11:40:00Z,25.8880,-89.6580,5.0,6.0,120.0,8.0,'1111122,1111122,1111122' 
NDBC,ioos:station:wmo:42001:1,2017-08-10T12:40:00Z,25.8880,-89.6580,5.0,6.0,120.0,7.0,'1111122,1111122,1111122' 
NDBC,ioos:station:wmo:42001:1,2017-08-10T13:20:00Z,25.8880,-89.6580,5.0,6.0,130.0,7.0,'1111122,1111122,1111122' 
NDBC,ioos:station:wmo:42001:1,2017-08-10T14:40:00Z,25.8880,-89.6580,5.0,5.0,140.0,7.0,'1111122,1111122,1111122' 
NDBC,ioos:station:wmo:42001:1,2017-08-10T15:40:00Z,25.8880,-89.6580,5.0,4.0,120.0,5.0,'1111122,1111122,1111122' 
NDBC,ioos:station:wmo:42001:1,2017-08-10T16:30:00Z,25.8880,-89.6580,5.0,4.0,130.0,5.0,'1111122,1111122,1111122' 
NDBC,ioos:station:wmo:42001:1,2017-08-10T17:40:00Z,25.8880,-89.6580,5.0,4.0,120.0,5.0,'1111122,1111122,1111122' 
NDBC,ioos:station:wmo:42001:1,2017-08-10T18:40:00Z,25.8880,-89.6580,5.0,4.0,110.0,5.0,'1111122,1111122,1111122' 
NDBC,ioos:station:wmo:42001:1,2017-08-10T19:50:00Z,25.8880,-89.6580,5.0,3.0,110.0,4.0,'1111122,1111122,1111122' 
NDBC,ioos:station:wmo:42001:1,2017-08-10T20:40:00Z,25.8880,-89.6580,5.0,3.0,100.0,4.0,'1111122,1111122,1111122' 
NDBC,ioos:station:wmo:42001:1,2017-08-10T21:40:00Z,25.8880,-89.6580,5.0,4.0,90.0,4.0,'1111122,1111122,1111122' 
NDBC,ioos:station:wmo:42001:1,2017-08-10T22:40:00Z,25.8880,-89.6580,5.0,3.0,90.0,4.0,'1111122,1111122,1111122' 
NDBC,ioos:station:wmo:42001:1,2017-08-10T23:40:00Z,25.8880,-89.6580,5.0,4.0,90.0,6.0,'1111122,1111122,1111122' 
NDBC,ioos:station:wmo:42001:1,2017-08-11T00:40:00Z,25.8880,-89.6580,5.0,4.0,80.0,5.0,'1111122,1111122,1111122' 
NDBC,ioos:station:wmo:42001:1,2017-08-11T01:20:00Z,25.8880,-89.6580,5.0,5.0,80.0,6.0,'1111122,1111122,1111122' 
NDBC,ioos:station:wmo:42001:1,2017-08-11T02:40:00Z,25.8880,-89.6580,5.0,5.0,80.0,7.0,'1111122,1111122,1111122' 
NDBC,ioos:station:wmo:42001:1,2017-08-11T03:40:00Z,25.8880,-89.6580,5.0,5.0,90.0,6.0,'1111122,1111122,1111122' 
NDBC,ioos:station:wmo:42001:1,2017-08-11T04:40:00Z,25.8880,-89.6580,5.0,6.0,80.0,7.0,'1111122,1111122,1111122' 
NDBC,ioos:station:wmo:42001:1,2017-08-11T05:40:00Z,25.8880,-89.6580,5.0,4.0,100.0,6.0,'1111122,1111122,1111122' 
NDBC,ioos:station:wmo:42001:1,2017-08-11T06:40:00Z,25.8880,-89.6580,5.0,5.0,90.0,8.0,'1111122,1111122,1111122' 
NDBC,ioos:station:wmo:42001:1,2017-08-11T07:40:00Z,25.8880,-89.6580,5.0,6.0,110.0,8.0,'1111122,1111122,1111122' 
NDBC,ioos:station:wmo:42001:1,2017-08-11T08:40:00Z,25.8880,-89.6580,5.0,5.0,130.0,6.0,'1111122,1111122,1111122' 
NDBC,ioos:station:wmo:42001:1,2017-08-11T09:40:00Z,25.8880,-89.6580,5.0,6.0,130.0,7.0,'1111122,1111122,1111122' 
NDBC,ioos:station:wmo:42001:1,2017-08-11T10:40:00Z,25.8880,-89.6580,5.0,6.0,140.0,7.0,'1111122,1111122,1111122' 
NDBC,ioos:station:wmo:42001:1,2017-08-11T11:40:00Z,25.8880,-89.6580,5.0,5.0,140.0,6.0,'1111122,1111122,1111122' 
NDBC,ioos:station:wmo:42001:1,2017-08-11T12:40:00Z,25.8880,-89.6580,5.0,4.0,150.0,5.0,'1111122,1111122,1111122' 
NDBC,ioos:station:wmo:42001:1,2017-08-11T13:40:00Z,25.8880,-89.6580,5.0,3.0,150.0,4.0,'1111122,1111122,1111122' 
NDBC,ioos:station:wmo:42001:1,2017-08-11T14:40:00Z,25.8880,-89.6580,5.0,2.0,140.0,3.0,'1111122,1111122,1111122' 
NDBC,ioos:station:wmo:42001:1,2017-08-11T15:40:00Z,25.8880,-89.6580,5.0,2.0,140.0,3.0,'1111122,1111122,1111122' 